Simultaneous Nadir Overpasses (SNOs) Predictions

Prediction of SNOs near US between AQUA and NPP Satellite Orbit:

Table of predicted SNOs near US for the next 10.0 days since TLE Epoch: 11/17/2017
Index Date (AQUA) Time (AQUA) AQUA Lat,Lon Date (NPP) Time (NPP) NPP Lat,Lon Distance(km) Time Diff (sec)
1 11/19/2017 07:18:41 49.89, -75.99 11/19/2017 07:20:43 50.32, -78.30 171.27 122
2 11/19/2017 08:57:33 49.90,-100.71 11/19/2017 09:02:09 50.48,-103.60 215.70 276
3 11/21/2017 18:16:50 49.96, -80.19 11/21/2017 18:10:58 49.70, -81.82 119.95 352
4 11/21/2017 19:55:43 49.95,-104.91 11/21/2017 19:52:26 49.59,-107.14 165.21 197
5 11/21/2017 21:30:53 36.66,-125.00 11/21/2017 21:30:04 36.16,-127.63 242.01 49
6 11/24/2017 09:23:24 23.77,-113.36 11/24/2017 09:16:06 23.88,-113.87 53.73 438
7 11/27/2017 06:30:16 46.35, -65.04 11/27/2017 06:30:57 46.77, -67.12 166.38 41
8 11/27/2017 08:08:09 49.91, -88.34 11/27/2017 08:11:23 50.45, -90.93 193.62 194
9 11/27/2017 09:47:02 49.92,-113.06 11/27/2017 09:52:51 50.56,-116.25 237.97 349




NCC Satellite Simultaneous Nadir Overpasses (SNOs) Prediction Service
